[Iaude] MPEC B41: 2024 BQ [a=1.96,e=0.56,i=8.3,H=24.8]
    mpec at marsden.cfa.harvard.edu 
    mpec at marsden.cfa.harvard.edu
       
    Thu Jan 18 20:06:57 EST 2024
    
    
  
M.P.E.C. 2024-B41                              Issued 2024 January 19, 01:05 UT
     The Minor Planet Electronic Circulars contain information on unusual
         minor planets, routine data on comets and natural satellites,
         and occasional editorial announcements.  They are published
    on behalf of Division F of the International Astronomical Union by the
          Minor Planet Center, Smithsonian Astrophysical Observatory,
                          Cambridge, MA 02138, U.S.A.
			  
             Prepared using the Tamkin Foundation Computer Network
                              MPC at CFA.HARVARD.EDU
            URL https://www.minorplanetcenter.net/    ISSN 1523-6714
                                    2024 BQ                                     
Observations:
     K24B00Q*1C2024 01 17.32105209 07 09.152-19 31 50.56         19.96GVEB041G96
     K24B00Q 1C2024 01 17.32629309 07 07.374-19 31 17.29         20.14GVEB041G96
     K24B00Q 1C2024 01 17.33154009 07 05.592-19 30 43.88               VEB041G96
     K24B00Q mC2024 01 17.37376009 06 51.354-19 26 13.74         20.29GVEB041V06
     K24B00Q mC2024 01 17.37410209 06 51.260-19 26 11.47         19.96GVEB041V06
     K24B00Q mC2024 01 17.37444409 06 51.145-19 26 09.49         19.90GVEB041V06
     K24B00Q mC2024 01 17.37478609 06 51.030-19 26 07.15         20.29GVEB041V06
     K24B00Q  C2024 01 17.37684009 06 49.788-19 25 56.31         19.8 GVEB041H01
     K24B00Q  C2024 01 17.38381309 06 47.472-19 25 11.58         20.0 GVEB041H01
     K24B00Q  C2024 01 17.39100109 06 45.086-19 24 25.34         19.9 GVEB041H01
     K24B00Q  C2024 01 17.39762009 06 42.898-19 23 42.96         20.0 GVEB041H01
     K24B00Q KC2024 01 17.42912709 06 33.048-19 20 18.89         20.14GVEB041V06
     K24B00Q KC2024 01 17.43015409 06 32.717-19 20 12.34         20.05GVEB041V06
     K24B00Q KC2024 01 17.43118109 06 32.371-19 20 05.64         19.87GVEB041V06
     K24B00Q KC2024 01 17.43220809 06 32.044-19 19 59.12         20.17GVEB041V06
     K24B00Q 0B2024 01 18.02105 09 04 06.55 -18 20 08.4          19.8 VZEB041M49
     K24B00Q 0B2024 01 18.02602 09 04 05.09 -18 19 40.8          20.1 VZEB041M49
     K24B00Q 0B2024 01 18.03097 09 04 03.65 -18 19 13.1          20.0 VZEB041M49
     K24B00Q KC2024 01 18.04220009 04 03.012-18 20 39.70         20.7 GVEB041J95
     K24B00Q KC2024 01 18.05876109 03 58.481-18 19 09.16         20.1 GVEB041J95
     K24B00Q |C2024 01 18.14998009 03 42.660-18 08 04.40         20.0 GVEB041807
     K24B00Q |C2024 01 18.15238009 03 42.000-18 07 51.90         19.9 GVEB041807
     K24B00Q |C2024 01 18.15479009 03 41.370-18 07 39.20         20.4 GVEB041807
     K24B00Q KC2024 01 19.00484209 00 43.267-17 00 49.72         21.3 GVEB041J95
     K24B00Q KC2024 01 19.02024709 00 39.835-16 59 41.03         20.7 GVEB041J95
Observer details:
807 Cerro Tololo Observatory, La Serena.  Observers T. Linder, R. Holmes.
    0.61-m f/11 Ritchey-Chretien + CCD.
G96 Mt. Lemmon Survey.  Observer J. K. Hogan.  Measurers T. Beuden, V. F.
    Carvajal, D. Fay, J. B. Fazekas, D. C. Fuls, A. R. Gibbs, A. D. Grauer, H.
    Groeller, J. K. Hogan, R. A. Kowalski, S. M. Larson, G. J. Leonard, D.
    Rankin, R. L. Seaman, F. C. Shelly, K. W. Wierzchos.  1.5-m reflector +
    10K CCD.
H01 Magdalena Ridge Observatory, Socorro.  Observers W. H. Ryan, E. V. Ryan.
    Measurer W. H. Ryan.  2.4-m f/8.9 Ritchey-Chretien + CCD.
J95 Great Shefford.  Observer P. Birtwhistle.  0.41-m f/6.3 Schmidt-Cassegrain
    + CCD.
M49 IAS Remote Observatory, Hakos.  Observers D. Husar, M. Junius.  Measurer
    D. Husar.  0.25-m f/4.5 reflector + CMO.
V06 Catalina Sky Survey-Kuiper.  Observer G. J. Leonard.  Measurers T. Beuden,
    V. F. Carvajal, D. Fay, J. B. Fazekas, D. C. Fuls, A. R. Gibbs, A. D.
    Grauer, H. Groeller, J. K. Hogan, R. A. Kowalski, S. M. Larson, G. J.
    Leonard, D. Rankin, R. L. Seaman, F. C. Shelly, K. W. Wierzchos.  1.55-m
    reflector + 1K CCD.
Orbital elements:
2024 BQ                                                  Earth MOID = 0.0127 AU
Epoch 2023 Sept. 13.0 TT = JDT 2460200.5                Veres                   
M 329.55673              (2000.0)            P               Q                  
n   0.35972680     Peri.  134.90157     +0.48643402     -0.86251522             
a   1.9580368      Node   285.51959     +0.75530166     +0.49535366             
e   0.5637158      Incl.    8.32214     +0.43920536     +0.10340334             
P   2.74           H   24.89          G   0.15           U   8                  
Residuals in seconds of arc
240117 G96  0.0   0.2+    240117 H01  0.1+  0.1+    240118 J95  0.4+  0.1-
240117 G96  0.1-  0.0     240117 H01  0.1+  0.0     240118 J95  0.1+  0.2-
240117 G96  0.2-  0.1-    240117 V06  0.1+  0.1+    240118 807  0.0   0.0
240117 V06  0.3-  0.0     240117 V06  0.2+  0.1+    240118 807  0.1-  0.1+
240117 V06  0.0   0.0     240117 V06  0.0   0.2+    240118 807  0.2+  0.2+
240117 V06  0.0   0.2-    240117 V06  0.1+  0.1+    240119 J95  0.1+  0.0
240117 V06  0.0   0.0     240118 M49  0.1+  0.0     240119 J95  0.3-  0.1-
240117 H01  0.0   0.0     240118 M49  0.0   0.2+
240117 H01  0.1+  0.0     240118 M49  0.1+  0.5+
Ephemeris:
2024 BQ                  a,e,i = 1.96, 0.56, 8                   q = 0.8543
Date    TT    R. A. (2000) Decl.     Delta      r    Elong.  Phase     V
2023 12 20    20 18 05.9 +00 07 49   0.1596  0.8743    43.2   129.7    26.3
...
2024 01 04    19 57 11.6 -09 58 04   0.04680 0.9393    19.6   159.5    28.9
...
2024 01 12    10 34 06.8 -43 56 46   0.02091 0.9880   102.0    76.8    19.1
...
2024 01 18    09 04 12.4 -18 22 21   0.06048 1.0292   137.5    40.2    20.4
2024 01 19    09 00 42.6 -16 59 16   0.06765 1.0364   139.7    37.9    20.6
2024 01 20    08 57 53.7 -15 50 48   0.07488 1.0436   141.5    35.9    20.8
...
2024 01 26    08 48 10.1 -11 37 06   0.1193  1.0886   149.1    27.7    21.7
...
2024 02 03    08 42 38.1 -08 34 04   0.1816  1.1516   154.1    21.9    22.6
...
2024 02 18    08 40 45.7 -04 47 27   0.3119  1.2751   153.6    20.1    23.9
M. P. C. Staff               (C) Copyright 2024 MPC           M.P.E.C. 2024-B41
    
    
More information about the Iaude
mailing list